Location: Ulcombe
(51.2000°N, 0.6500°E)
Time: 05:10:21
(UTC+00:00)

Daily predictions for brighter satellites

Satellite Brightness Start Highest point End
(mag) Time Altitude Azimuth Time Altitude Azimuth Time Altitude Azimuth
Cosmos 2333 Rocket 4.1 00:04:54 18° E 00:04:54 18° E 00:07:56 10° ENE
ALOS 2 4.4 00:06:52 25° WNW 00:06:52 25° WNW 00:09:17 10° NNW
USA 215 3.8 00:00:58 10° ENE 00:06:02 42° ESE 00:06:02 42° ESE
Cosmos 1447 Rocket 4.4 00:08:01 80° W 00:08:08 81° WNW 00:14:20 10° N
Cosmos 2360 Rocket 3.8 00:09:55 22° E 00:09:55 22° E 00:13:27 10° NE
Cosmos 2263 Rocket 3.4 00:06:58 10° NW 00:10:39 30° W 00:10:39 30° W
Lacrosse 4 Rocket 3.4 00:15:02 22° NE 00:15:02 22° NE 00:16:37 10° NE
Cosmos 1814 Rocket 4.3 00:14:29 61° NE 00:14:29 61° NE 00:18:47 10° NNE
Cosmos 2322 Rocket 3.3 00:19:32 33° E 00:19:32 33° E 00:23:45 10° NE
Cosmos 1891 Rocket 4.4 00:15:51 10° NNW 00:21:59 76° W 00:21:59 76° W
ATLAS 3B R/B 4.4 00:17:27 10° WNW 00:24:08 34° NNW 00:31:06 10° NE
NOSS 3-2 (C) 3.9 00:17:25 10° NW 00:24:43 83° SW 00:26:40 57° SSE
Cosmos 2034 Rocket 4.1 00:18:33 10° N 00:24:43 62° ENE 00:25:21 59° ESE
Cosmos 1513 Rocket 4.3 00:19:22 10° NNW 00:25:24 77° W 00:25:24 77° W
Cosmos 2219 Rocket 4.1 00:27:22 17° E 00:27:22 17° E 00:30:41 10° ENE
Cosmos 2058 Rocket 4.1 00:32:03 43° N 00:32:03 43° N 00:35:04 10° N
Cosmos 1844 3.7 00:28:00 10° NNW 00:33:46 81° NE 00:33:46 81° NE
SL-16 R/B 2.4 00:35:17 62° E 00:35:17 62° E 00:40:26 10° NE
H-2A R/B 3.5 00:38:48 10° N 00:41:37 31° NW 00:41:37 31° NW
USA 267 3.1 00:42:48 69° SSE 00:43:32 76° SW 00:50:07 10° WNW
GEOS 3 Rocket 3.6 00:49:53 84° NNE 00:49:53 84° NNE 00:55:10 10° NW
ADEOS II 4.4 00:48:48 10° NE 00:51:26 14° E 00:53:12 12° ESE
Timation 2 Rocket 4.0 00:45:17 10° NNW 00:52:01 88° NE 00:52:59 68° SE
Meteor 2-16 Rocket 4.4 00:52:36 66° SE 00:53:05 69° E 00:59:11 10° NNE
Cosmos 2278 3.7 00:54:34 73° WNW 00:54:38 74° WNW 01:00:21 10° NNE
Nimbus 7 Rocket 4.2 00:48:53 10° NNE 00:54:47 81° ESE 00:55:02 79° SE
ATLAS 5 CENTAUR R/B 4.4 00:53:17 10° NW 00:56:04 17° N 00:59:11 10° NE
Cosmos 1125 Rocket 4.1 00:52:10 10° NNW 00:56:07 46° WNW 00:56:07 46° WNW
Meteor 2-21 Rocket 4.3 00:57:25 77° SSE 00:57:54 84° E 01:04:08 10° NNE
SL-16 R/B 4.3 00:52:55 10° ESE 00:58:00 28° NE 01:03:08 10° N
Cosmos 1844 Rocket 3.0 00:53:26 10° NW 00:58:03 54° WNW 00:58:03 54° WNW
Cosmos 1980 Rocket 3.5 00:57:35 27° WNW 00:59:14 31° NW 01:04:16 10° NNE
Meteor 2-21 4.4 00:58:50 70° WSW 00:59:15 73° WNW 01:05:29 10° N
CZ-2D R/B 3.7 00:58:51 10° NE 01:03:13 25° E 01:04:20 23° ESE
Meteor 1-5 Rocket 4.4 00:57:45 10° N 01:03:30 70° ENE 01:04:15 62° ESE
Cosmos 2208 Rocket 4.0 01:09:23 82° E 01:09:23 82° E 01:14:46 10° NNE
MOZ.5/SAFIR/RUBIN 5/SL-8 3.9 01:12:10 72° NNE 01:12:10 72° NNE 01:16:31 10° NNW
Cosmos-2242 3.8 01:14:26 46° NNW 01:14:26 46° NNW 01:17:34 10° N
Cosmos 2237 4.2 01:13:16 66° W 01:13:40 68° WNW 01:19:23 10° NNE
Cosmos 1816 Rocket 4.3 01:16:05 67° WSW 01:16:40 71° WNW 01:22:49 10° N
Cosmos 2150 Rocket 4.4 01:18:56 10° NNW 01:23:01 49° WNW 01:23:01 49° WNW
COSMOS 2428 4.3 01:22:41 21° ESE 01:24:05 23° ESE 01:28:26 10° NE
USA 238 DEB 3.8 01:16:54 10° NW 01:24:07 66° SW 01:26:01 51° S
USA 238 3.8 01:17:00 10° NW 01:24:14 67° SW 01:26:14 50° S
Cosmos 2298 Rocket 4.4 01:19:31 10° NNW 01:23:54 51° WNW 01:23:54 51° WNW
Cosmos 489 Rocket 4.4 01:25:43 10° NNW 01:32:03 85° ENE 01:34:06 46° SSE
CZ-2C R/B 3.2 01:31:22 32° SE 01:33:40 55° ENE 01:38:55 10° N
Meteor 2-2 Rocket 4.2 01:33:31 64° WSW 01:34:09 70° WNW 01:40:05 10° N
Cosmos 1867 4.1 01:29:41 10° NW 01:35:07 57° NE 01:40:30 10° ESE
Cosmos 836 Rocket 4.4 01:36:30 74° WSW 01:36:48 77° WNW 01:42:07 10° NNE
NPP 4.0 01:33:11 10° NNE 01:38:30 56° E 01:39:31 49° SE
Tsikada Rocket 3.9 01:37:57 61° SW 01:39:00 75° W 01:45:12 10° N
Cosmos 2221 2.7 01:40:19 65° ENE 01:40:19 65° ENE 01:44:13 10° NNE
Cosmos 2279 Rocket 4.0 01:34:36 10° N 01:40:53 79° E 01:42:58 45° SSE
Cosmos 158 Rocket 3.8 01:40:52 71° WNW 01:40:56 71° WNW 01:45:55 10° NNE
Cosmos 2333 4.1 01:42:17 65° S 01:42:59 75° ESE 01:48:36 10° NNE
Lacrosse 5 1.9 01:44:47 63° SE 01:44:47 63° SE 01:49:47 10° ENE
Resurs 1-4 Rocket 2.6 01:39:31 10° NNE 01:44:43 53° E 01:45:54 44° SE
Cosmos 1766 Rocket 3.6 01:41:02 10° N 01:44:56 72° NNW 01:44:56 72° NNW
Cosmos 2333 Rocket 2.0 01:46:53 66° SW 01:47:43 87° WNW 01:53:25 10° NNE
ALOS 4.4 01:44:54 10° NE 01:48:18 20° E 01:50:36 14° SE
Cosmos 44 Rocket 3.8 01:48:57 47° SE 01:49:23 49° ESE 01:54:22 10° NE
USA 215 3.3 01:44:00 10° ENE 01:50:33 79° NNW 01:53:22 37° WSW
Lacrosse 4 Rocket 3.0 01:50:59 25° NW 01:51:16 25° NW 01:54:38 10° NNE
Cosmos 2360 Rocket 2.2 01:51:39 59° WSW 01:52:35 72° WNW 01:58:15 10° NNE
Cosmos 972 Rocket 4.4 01:51:41 49° SSE 01:52:48 60° ESE 01:57:51 10° NNE
Cosmos 1743 3.3 01:51:16 10° N 01:54:05 49° N 01:54:05 49° N
BlueWalker 3 2.5 01:58:05 52° ENE 01:58:05 52° ENE 02:01:07 10° E
Aureole 3 Rocket 4.3 01:53:04 10° NNW 01:56:48 31° WNW 01:56:48 31° WNW
Cosmos 2278 Rocket 3.0 01:54:58 10° NNW 02:00:32 50° NE 02:06:02 10° SE
Cosmos 2344 4.1 01:52:38 10° NW 02:00:42 78° NE 02:11:43 10° SE
Cosmos 773 Rocket 3.9 02:00:42 63° SW 02:01:31 79° WNW 02:06:50 10° NNE
IRIDIUM 106 4.3 01:56:58 10° N 02:02:13 79° E 02:03:43 48° SSE
Cosmos 2322 Rocket 2.6 02:01:19 42° W 02:02:37 50° NW 02:08:06 10° NNE
Cosmos 783 Rocket 4.5 02:02:18 59° S 02:03:15 77° ESE 02:08:30 10° NNE
NOSS 3-4 (A) 3.2 02:03:50 56° SSW 02:05:07 81° SE 02:11:17 10° NE
NOSS 3-4 (C) 3.2 02:03:53 55° SSW 02:05:10 81° SE 02:11:20 10° NE
IDEFIX/ARIANE 42P 2.4 02:00:11 10° NNE 02:05:25 90° SSE 02:06:30 58° SSW
Cosmos 1536 3.6 02:06:10 10° N 02:09:56 47° ENE 02:11:04 35° ESE
Okean 3 Rocket 3.5 02:05:49 10° N 02:10:23 86° W 02:10:57 68° S
Cosmos 2219 Rocket 2.1 02:09:03 54° SSW 02:10:24 88° ESE 02:16:02 10° NNE
MSX 3.8 02:06:23 10° NNE 02:12:14 87° ESE 02:14:09 45° SSW
Gbstr 26 Del rocket 3.9 02:13:49 33° SE 02:13:49 33° SE 02:16:52 10° E
H-2A R/B 3.6 02:09:51 10° N 02:13:48 56° WNW 02:13:48 56° WNW
ATLAS 3B R/B 4.5 02:10:01 10° NW 02:16:59 36° NNE 02:24:05 10° E
COBE Rocket 3.7 02:13:21 10° NNE 02:18:05 86° ESE 02:19:04 56° S
GP-B 4.1 02:14:06 10° NNE 02:18:20 44° E 02:20:36 24° SE
SL-16 R/B 3.5 02:17:07 23° W 02:19:20 31° NW 02:24:21 10° NNE
Meteor 1-28 Rocket 3.1 02:20:07 78° ESE 02:20:14 80° ENE 02:23:55 10° NNW
NOSS 2-2 (E) 3.9 02:19:23 10° NW 02:23:35 80° NE 02:29:31 10° SE
BREEZE-M DEB (TANK) 2.7 02:27:07 67° SSW 02:27:22 71° S 02:34:35 10° E
Cosmos 1726 2.0 02:24:31 10° N 02:27:30 67° NE 02:27:30 67° NE
Okean 1 4.2 02:29:45 29° SE 02:31:07 41° E 02:34:44 10° NNE
ADEOS II 2.1 02:26:37 10° NNE 02:31:54 81° ESE 02:34:06 36° S
FENGYUN 3A 3.7 02:29:04 10° NNE 02:34:32 75° ESE 02:37:10 31° S
Meteor 1-14 Rocket 4.4 02:31:47 10° NNW 02:37:08 51° W 02:38:42 39° SW
Cosmos 1461 2.7 02:33:48 10° NW 02:37:42 80° NE 02:41:31 10° SE
NOSS 2-2 (D) 3.9 02:33:51 10° NW 02:37:58 78° NE 02:43:45 10° SE
SL-16 R/B 2.4 02:36:39 20° S 02:41:05 72° WSW 02:47:21 10° NNW
ATLAS 5 CENTAUR R/B 3.6 02:37:07 10° NW 02:41:13 33° NNE 02:46:08 10° E
Meteor 2-6 Rocket 4.4 02:38:50 36° SW 02:41:17 67° WNW 02:47:13 10° N
NOSS 2-3 (E) 4.4 02:37:30 10° NW 02:42:57 88° SW 02:50:28 10° SE
RESURS DK-1 3.2 02:41:52 31° SSE 02:43:14 43° ESE 02:47:06 10° NE
CZ-2D R/B 2.3 02:38:22 10° N 02:43:36 60° WNW 02:45:38 36° SW
Cosmos 1151 Rocket 4.4 02:40:49 15° SSE 02:43:59 36° E 02:47:57 10° NNE
Envisat 4.4 02:44:19 10° NNE 02:48:58 34° E 02:53:34 10° SSE
Cosmos 1842 Rocket 3.8 02:50:51 41° WSW 02:51:56 51° WNW 02:56:18 10° N
Cosmos 1408 Rocket 3.6 02:48:27 10° NNW 02:52:41 56° W 02:53:56 40° SSW
IRAS Rocket 4.2 02:51:44 10° NNE 02:57:24 78° WNW 03:00:33 27° SSW
Cosmos 1975 4.3 02:55:04 10° N 02:58:38 35° ENE 03:02:12 10° SE
Cosmos 375 4.2 02:56:08 10° NW 02:59:56 78° SW 03:04:29 10° SE
Cosmos 1943 Rocket 2.4 02:55:26 10° NNW 03:01:08 76° ENE 03:06:48 10° SE
Meteor 1-27 Rocket 3.9 02:56:58 18° S 03:01:22 75° E 03:07:03 10° NNE
Cosmos 1340 4.4 02:59:13 10° N 03:02:18 30° ENE 03:05:23 10° SE
ATLAS 2AS CENTAUR R/B 4.5 02:59:21 10° SSE 03:05:15 26° ESE 03:11:00 10° ENE
COSMOS 2428 2.7 03:04:40 28° SW 03:07:47 73° WNW 03:13:30 10° NNE
Cosmos 1805 Rocket 3.5 03:04:51 10° NNW 03:09:09 63° W 03:11:52 21° S
CZ-4 R/B 4.3 03:04:37 10° NNE 03:09:21 58° ESE 03:13:29 13° S
Meteor 1-10 Rocket 4.4 03:06:03 25° SSW 03:09:37 67° WNW 03:15:34 10° N
Cosmos 1500 Rocket 3.7 03:05:25 10° NNW 03:09:46 52° W 03:12:00 26° SSW
UNK 3.8 03:07:30 21° S 03:10:22 55° W 03:14:55 10° NNW
Meteor 1-11 Rocket 3.9 03:07:02 10° NNW 03:12:27 51° W 03:16:27 17° SSW
Cosmos 1666 Rocket 4.3 03:08:18 10° N 03:12:43 55° ENE 03:17:04 10° SSE
CZ-2C R/B 3.6 03:12:51 25° WSW 03:14:13 28° W 03:18:49 10° NW
Cosmos 2237 Rocket 2.6 03:11:13 17° S 03:15:35 61° ESE 03:21:13 10° NE
Cosmos 1980 4.0 03:12:33 18° SSW 03:16:49 66° ESE 03:22:26 10° NE
AQUA 4.2 03:12:38 10° N 03:17:13 49° WNW 03:19:38 25° SW
CZ-2C R/B 3.4 03:12:39 10° N 03:17:30 48° WNW 03:20:25 24° SW
Cosmos 2221 4.4 03:16:57 15° WNW 03:17:50 16° WNW 03:20:26 10° NNW
Cosmos 1867 4.1 03:13:36 10° NW 03:18:31 34° WSW 03:23:23 10° S
Cosmos 2369 Rocket 4.1 03:13:59 10° NNW 03:18:59 32° NE 03:23:58 10° ESE
Intercosmos 25 Rocket 3.8 03:16:40 10° N 03:19:55 59° E 03:24:10 10° SSE
Cosmos 2322 4.2 03:20:27 23° WSW 03:23:52 49° NW 03:29:26 10° NNE
Resurs 1-4 Rocket 3.2 03:19:45 10° N 03:24:17 29° WNW 03:26:58 19° WSW
Meteor 2-9 Rocket 4.2 03:19:41 10° NNW 03:24:54 53° W 03:30:10 10° S
NOSS 2-2 (C) 3.9 03:20:58 10° NW 03:25:12 55° SW 03:31:05 10° SSE
ALOS 2.4 03:21:20 10° N 03:25:55 60° WNW 03:28:56 21° SW
Lacrosse 5 2.4 03:23:58 16° W 03:27:52 53° NNW 03:32:53 10° ENE
DMSP B5D2-2 4.4 03:24:42 10° SSE 03:29:52 69° ENE 03:35:03 10° N
Cosmos 44 Rocket 4.2 03:27:36 19° W 03:31:00 42° NW 03:35:54 10° NE
Cosmos 1733 3.3 03:27:50 10° NNW 03:31:19 46° W 03:33:43 18° SSW
Cosmos 2333 Rocket 3.8 03:28:52 12° W 03:32:49 24° NW 03:37:19 10° NNE
USA 215 3.9 03:26:56 10° ENE 03:33:16 55° N 03:39:37 10° W
Nadezhda 4 Rocket 4.4 03:30:19 19° SW 03:34:21 43° WNW 03:40:11 10° N
Sich 1 3.6 03:31:37 10° NNW 03:35:27 34° W 03:37:58 18° SW
BlueWalker 3 2.2 03:32:32 15° W 03:35:28 44° SSW 03:39:07 10° SE
YAOGAN 6 3.1 03:33:02 10° NNE 03:36:14 51° E 03:39:27 10° S
IRS-1D 4.1 03:32:10 10° NNE 03:37:11 59° ESE 03:42:16 10° S
Cosmos 2360 Rocket 4.0 03:33:29 10° W 03:37:37 20° NW 03:41:46 10° NNE
NOSS 0 Rocket 4.0 03:36:15 17° SW 03:41:08 74° NW 03:47:20 10° NNE
Cosmos 1743 Rocket 4.3 03:39:53 10° NNW 03:43:42 31° W 03:46:31 15° SW
USA 290 3.7 03:40:50 10° NNW 03:43:46 39° ENE 03:46:41 10° SE
IDEFIX/ARIANE 42P 4.3 03:40:50 10° NNW 03:44:17 18° NW 03:47:15 12° W
Cosmos 2278 Rocket 2.8 03:39:21 10° NW 03:44:27 35° WSW 03:49:31 10° S
Cosmos 1536 4.3 03:43:01 10° NW 03:45:36 17° W 03:46:21 16° W
Cosmos 1328 Rocket 3.9 03:42:03 10° S 03:46:25 68° E 03:50:51 10° NNE
NOSS 3-1 (C) 4.1 03:39:31 10° NW 03:46:34 84° NE 03:55:17 10° SE
Cosmos 1340 Rocket 2.7 03:43:19 10° S 03:47:09 87° ESE 03:51:03 10° NNE
Cosmos 2322 Rocket 4.3 03:44:36 10° WNW 03:48:03 16° NNW 03:51:30 10° N
Cosmos 1805 3.2 03:46:37 10° NNW 03:50:14 52° W 03:53:50 10° S
Cosmos 1633 Rocket 2.9 03:46:42 10° NNW 03:51:03 79° W 03:55:22 10° S
Cosmos 1680 Rocket 3.6 03:47:12 10° SSW 03:52:31 85° ESE 03:57:52 10° NNE
Cosmos 1553 Rocket 4.0 03:47:34 10° NNW 03:53:55 75° W 04:00:05 10° S
Cosmos 2219 Rocket 3.7 03:50:45 11° W 03:55:05 24° NW 03:59:36 10° NNE
GP-B 4.4 03:51:47 10° NNW 03:55:18 23° WNW 03:57:55 14° WSW
NOSS 3-4 (A) 4.5 03:51:18 10° W 03:56:36 36° NNW 04:02:32 10° NE
NOSS 3-4 (C) 4.4 03:51:21 10° W 03:56:38 36° NNW 04:02:35 10° NE
Cosmos 1420 Rocket 4.1 03:52:27 10° NNW 03:57:34 54° WSW 04:02:41 10° S
Gbstr 26 Del rocket 2.7 03:56:05 14° WSW 03:59:35 88° SSE 04:03:20 10° E
Cosmos 2056 Rocket 3.6 03:55:57 10° NNW 04:01:14 60° WSW 04:06:33 10° S
METEOR-M 4.2 03:56:30 10° N 04:01:47 64° WNW 04:07:02 10° SSW
SL-16 R/B 3.1 04:00:37 10° S 04:06:02 49° ESE 04:11:29 10° NE
EO 1 Delta rocket 4.5 04:01:37 10° N 04:06:02 38° WNW 04:10:18 10° SW
Cosmos 1452 Rocket 4.3 04:03:07 10° NNW 04:08:20 57° ENE 04:13:31 10° SE
ATLAS 3B R/B 3.4 04:01:18 10° NW 04:09:04 70° NE 04:16:50 10° SE
CZ-2C R/B 2.6 04:04:33 10° N 04:09:42 69° WNW 04:14:49 10° SSW
Cosmos 1656 Rocket 3.9 04:05:00 10° NNW 04:10:27 74° ENE 04:15:51 10° SE
PAYLOAD A 3.9 04:05:53 10° NNE 04:10:54 75° WNW 04:15:41 10° SSW
ADEOS II 3.6 04:07:12 10° N 04:10:57 20° NW 04:14:42 10° W
Cosmos 1624 Rocket 4.2 04:08:38 10° NNW 04:13:39 48° WSW 04:18:37 10° S
Cosmos 1461 4.3 04:13:23 10° W 04:15:25 14° WSW 04:17:27 10° SW
Iridium 51 3.8 04:14:31 10° S 04:17:52 78° W 04:21:14 10° N
RESURS DK-1 3.6 04:17:36 10° WSW 04:21:09 28° NW 04:24:41 10° NNE
Cosmos 1151 Rocket 4.1 04:17:52 10° SW 04:21:33 27° WNW 04:25:16 10° N
Meteor 2-12 Rocket 4.4 04:15:37 10° SSW 04:21:39 74° WNW 04:27:45 10° N
CZ-2D R/B 4.1 04:20:13 10° NNW 04:22:37 13° NW 04:25:02 10° WNW
ATLAS 5 CENTAUR R/B 2.0 04:20:42 10° NW 04:25:29 71° SW 04:31:28 10° SSE
SL-16 R/B 4.1 04:22:36 10° WSW 04:25:48 14° W 04:29:01 10° NW
Cosmos 1939 Rocket 4.2 04:23:31 10° NNE 04:27:07 41° E 04:30:42 10° S
CBERS-1 4.4 04:22:33 10° NNE 04:27:41 69° ESE 04:32:44 10° S
Envisat 3.6 04:23:17 10° N 04:28:00 40° WNW 04:32:42 10° SW
Cosmos 1766 3.2 04:26:18 10° NNW 04:29:56 55° W 04:33:33 10° S
